TimeEST,TemperatureF,Dew PointF,Humidity,Sea Level PressureIn,VisibilityMPH,Wind Direction,Wind SpeedMPH,Gust SpeedMPH,PrecipitationIn,Events,Conditions,WindDirDegrees,DateUTC
12:15 AM,8.4,-7.6,48,30.24,10.0,WNW,5.8,-,N/A,,Clear,290,2014-01-07 05:15:00
12:35 AM,7.7,-7.8,49,30.24,10.0,West,4.6,-,N/A,,Clear,280,2014-01-07 05:35:00
12:55 AM,7.7,-8.1,49,30.24,10.0,WNW,3.5,-,N/A,,Clear,290,2014-01-07 05:55:00
1:15 AM,7.7,-8.5,48,30.25,10.0,Calm,Calm,-,N/A,,Clear,0,2014-01-07 06:15:00
1:35 AM,7.5,-9.0,47,30.26,10.0,Calm,Calm,-,N/A,,Clear,0,2014-01-07 06:35:00
1:55 AM,7.7,-9.4,46,30.27,10.0,Calm,Calm,-,N/A,,Clear,0,2014-01-07 06:55:00
2:15 AM,7.5,-8.3,49,30.28,10.0,Calm,Calm,-,N/A,,Clear,0,2014-01-07 07:15:00
2:35 AM,7.0,-7.4,52,30.29,10.0,Calm,Calm,-,N/A,,Clear,0,2014-01-07 07:35:00
2:55 AM,7.3,-9.2,47,30.29,10.0,Calm,Calm,-,N/A,,Clear,0,2014-01-07 07:55:00
3:15 AM,6.8,-8.7,49,30.29,10.0,Calm,Calm,-,N/A,,Clear,0,2014-01-07 08:15:00
3:35 AM,7.2,-9.6,46,30.30,10.0,Calm,Calm,-,N/A,,Clear,0,2014-01-07 08:35:00
3:55 AM,6.8,-10.1,46,30.31,10.0,Calm,Calm,-,N/A,,Clear,0,2014-01-07 08:55:00
4:15 AM,6.8,-9.4,48,30.30,10.0,Calm,Calm,-,N/A,,Clear,0,2014-01-07 09:15:00
4:35 AM,6.3,-8.5,51,30.31,10.0,Calm,Calm,-,N/A,,Clear,0,2014-01-07 09:35:00
4:55 AM,5.9,-8.0,53,30.31,10.0,Calm,Calm,-,N/A,,Clear,0,2014-01-07 09:55:00
5:15 AM,5.5,-5.6,60,30.34,10.0,Calm,Calm,-,N/A,,Clear,0,2014-01-07 10:15:00
5:35 AM,5.5,-5.3,61,30.33,10.0,Calm,Calm,-,N/A,,Clear,0,2014-01-07 10:35:00
5:55 AM,5.0,-4.5,65,30.31,10.0,ENE,3.5,-,N/A,,Clear,70,2014-01-07 10:55:00
6:15 AM,5.0,-4.7,64,30.31,10.0,Calm,Calm,-,N/A,,Clear,0,2014-01-07 11:15:00
6:35 AM,4.6,-3.5,69,30.33,10.0,Calm,Calm,-,N/A,,Clear,0,2014-01-07 11:35:00
6:55 AM,3.6,-2.7,75,30.34,10.0,Calm,Calm,-,N/A,,Clear,0,2014-01-07 11:55:00
7:15 AM,3.4,-3.3,74,30.35,10.0,Calm,Calm,-,N/A,,Clear,0,2014-01-07 12:15:00
7:35 AM,3.0,-2.0,80,30.38,10.0,Calm,Calm,-,N/A,,Clear,0,2014-01-07 12:35:00
7:55 AM,3.9,-2.2,76,30.40,10.0,Calm,Calm,-,N/A,,Clear,0,2014-01-07 12:55:00
8:15 AM,5.7,-1.8,71,30.41,10.0,Calm,Calm,-,N/A,,Clear,0,2014-01-07 13:15:00
8:35 AM,6.8,-1.5,69,30.42,10.0,Calm,Calm,-,N/A,,Clear,0,2014-01-07 13:35:00
8:55 AM,8.6,-2.9,60,30.44,10.0,NNE,5.8,-,N/A,,Clear,30,2014-01-07 13:55:00
9:15 AM,8.8,-5.6,52,30.44,10.0,NNE,4.6,-,N/A,,Clear,30,2014-01-07 14:15:00
9:35 AM,10.2,-5.8,49,30.44,10.0,NNE,5.8,-,N/A,,Clear,30,2014-01-07 14:35:00
9:55 AM,12.0,-8.1,40,30.45,10.0,NNE,4.6,-,N/A,,Clear,20,2014-01-07 14:55:00
10:15 AM,13.1,-6.7,41,30.45,10.0,North,3.5,-,N/A,,Clear,350,2014-01-07 15:15:00
10:35 AM,13.8,-7.4,38,30.45,10.0,North,5.8,-,N/A,,Clear,360,2014-01-07 15:35:00
10:55 AM,15.6,-8.9,33,30.44,10.0,North,6.9,-,N/A,,Clear,10,2014-01-07 15:55:00
11:15 AM,17.1,-8.3,32,30.42,10.0,NE,5.8,-,N/A,,Clear,40,2014-01-07 16:15:00
11:35 AM,19.2,-6.3,32,30.41,10.0,North,3.5,-,N/A,,Clear,360,2014-01-07 16:35:00
11:55 AM,19.8,-6.5,31,30.39,10.0,NNE,4.6,-,N/A,,Clear,30,2014-01-07 16:55:00
12:15 PM,20.5,-6.0,31,30.38,10.0,SE,3.5,-,N/A,,Clear,130,2014-01-07 17:15:00
12:35 PM,20.8,-6.2,30,30.37,10.0,Calm,Calm,-,N/A,,Clear,0,2014-01-07 17:35:00
12:55 PM,21.2,-6.3,30,30.36,10.0,Calm,Calm,-,N/A,,Clear,0,2014-01-07 17:55:00
1:15 PM,22.1,-5.6,30,30.35,10.0,SSW,4.6,-,N/A,,Clear,210,2014-01-07 18:15:00
1:35 PM,24.1,-5.4,27,30.34,10.0,Calm,Calm,-,N/A,,Clear,0,2014-01-07 18:35:00
1:55 PM,23.4,-6.2,27,30.34,10.0,Calm,Calm,-,N/A,,Clear,0,2014-01-07 18:55:00
2:15 PM,24.8,-6.7,25,30.34,10.0,SW,3.5,-,N/A,,Clear,220,2014-01-07 19:15:00
2:35 PM,26.1,-6.0,25,30.34,10.0,South,3.5,-,N/A,,Clear,190,2014-01-07 19:35:00
2:55 PM,26.2,-5.8,25,30.34,10.0,ESE,4.6,-,N/A,,Clear,110,2014-01-07 19:55:00
3:15 PM,26.2,-6.9,23,30.35,10.0,South,3.5,-,N/A,,Clear,180,2014-01-07 20:15:00
3:35 PM,26.6,-7.1,23,30.35,10.0,SSW,3.5,-,N/A,,Clear,210,2014-01-07 20:35:00
3:55 PM,27.9,-5.3,24,30.36,10.0,SE,4.6,-,N/A,,Clear,130,2014-01-07 20:55:00
4:15 PM,27.3,-5.1,24,30.36,10.0,SSE,5.8,-,N/A,,Clear,150,2014-01-07 21:15:00
4:35 PM,27.5,-4.7,25,30.37,10.0,SSE,6.9,-,N/A,,Clear,150,2014-01-07 21:35:00
4:55 PM,27.3,-4.2,25,30.38,10.0,SSE,4.6,-,N/A,,Clear,150,2014-01-07 21:55:00
5:15 PM,26.4,-0.9,31,30.38,10.0,South,9.2,-,N/A,,Clear,180,2014-01-07 22:15:00
5:35 PM,24.8,0.5,35,30.39,10.0,South,10.4,-,N/A,,Clear,170,2014-01-07 22:35:00
5:55 PM,23.9,0.9,37,30.40,10.0,South,9.2,-,N/A,,Clear,180,2014-01-07 22:55:00
6:15 PM,23.5,0.7,37,30.40,10.0,South,8.1,-,N/A,,Clear,180,2014-01-07 23:15:00
6:35 PM,22.8,1.4,40,30.40,10.0,South,6.9,-,N/A,,Clear,170,2014-01-07 23:35:00
6:55 PM,22.1,1.4,41,30.40,10.0,South,6.9,-,N/A,,Clear,180,2014-01-07 23:55:00
7:15 PM,22.1,1.4,41,30.41,10.0,SSE,6.9,-,N/A,,Clear,160,2014-01-08 00:15:00
7:35 PM,21.4,1.6,42,30.41,10.0,South,4.6,-,N/A,,Clear,180,2014-01-08 00:35:00
7:55 PM,21.7,0.9,40,30.42,10.0,South,4.6,-,N/A,,Clear,190,2014-01-08 00:55:00
8:15 PM,21.2,0.9,41,30.43,10.0,Calm,Calm,-,N/A,,Clear,0,2014-01-08 01:15:00
8:35 PM,21.0,1.4,43,30.44,10.0,Calm,Calm,-,N/A,,Clear,0,2014-01-08 01:35:00
8:55 PM,20.8,1.9,44,30.44,10.0,Calm,Calm,-,N/A,,Clear,0,2014-01-08 01:55:00
9:15 PM,20.1,2.8,47,30.44,10.0,South,3.5,-,N/A,,Clear,170,2014-01-08 02:15:00
9:35 PM,19.6,2.8,48,30.44,10.0,South,4.6,-,N/A,,Clear,190,2014-01-08 02:35:00
9:55 PM,19.4,3.6,50,30.44,10.0,South,4.6,-,N/A,,Clear,170,2014-01-08 02:55:00
10:15 PM,18.9,3.7,52,30.44,10.0,South,4.6,-,N/A,,Clear,180,2014-01-08 03:15:00
10:35 PM,19.0,3.2,50,30.44,10.0,South,4.6,-,N/A,,Clear,170,2014-01-08 03:35:00
10:55 PM,18.3,4.1,54,30.44,10.0,SSE,3.5,-,N/A,,Clear,160,2014-01-08 03:55:00
11:15 PM,18.1,4.1,54,30.44,10.0,South,3.5,-,N/A,,Clear,170,2014-01-08 04:15:00
11:35 PM,18.5,3.7,53,30.44,10.0,Calm,Calm,-,N/A,,Clear,0,2014-01-08 04:35:00
11:55 PM,18.1,3.9,54,30.44,10.0,SSE,3.5,-,N/A,,Clear,150,2014-01-08 04:55:00